Omaha Offutt, NE

2:22 PM CDT on July 22, 2017 (GMT -0500)
Offutt Air Force Base

Weather History for KOFF - March, 2014

Change the Weather History Date:

Monday, March 24, 2014

  Actual Average Record
Temperature  
Mean Temperature 36 °F -  
Max Temperature 46 °F 52 °F 78 °F (2012)
Min Temperature 24 °F 32 °F 14 °F (2008)
Degree Days  
Heating Degree Days 30    
Moisture  
Dew Point 14 °F    
Average Humidity 46    
Maximum Humidity 68    
Minimum Humidity 28    
Precipitation  
Precipitation 0.00 in - - ()
Sea Level Pressure  
Sea Level Pressure 30.27 in    
Wind  
Wind Speed 10 mph (ESE)    
Max Wind Speed 23 mph    
Max Gust Speed 28 mph    
Visibility 10 miles    
Events Snow    
Averages and records for this station are not official NWS values.
T = Trace of Precipitation, MM = Missing Value Source: NWS Daily Summary

Daily Weather History Graph

Daily Weather History Graph

Search for Another Location

Airport or City:

Trip Planner

Search our weather history database for the weather conditions in past years. The results will help you decide how hot, cold, wet, or windy it might be!

Date:

Astronomy

Mar. 24, 2014 Rise Set
Actual Time 7:20 AM CDT 7:40 PM CDT
Civil Twilight 6:52 AM CDT 8:07 PM CDT
Nautical Twilight 6:20 AM CDT 8:40 PM CDT
Astronomical Twilight 5:47 AM CDT 9:13 PM CDT
Moon 2:54 AM CDT (3/24) 1:03 PM CDT (3/24)
Length of Visible Light 13h 15m
Length of Day
12h 19m
Last Quarter, 43% of the Moon is Illuminated
Mar 24
Last Quarter
Mar 30
New
Apr 7
First Quarter
Apr 15
Full
Apr 22
Last Quarter

Hourly Weather History & Observations

Time (CDT) Temp. Windchill Dew Point Humidity Pressure Visibility Wind Dir Wind Speed Gust Speed Precip Events Conditions
12:58 AM 31.8 °F 23.3 °F 11.1 °F 42% 30.34 in 10.0 mi ESE 10.4 mph - N/A   Overcast
1:58 AM 30.6 °F 21.8 °F 10.6 °F 43% 30.33 in 10.0 mi ESE 10.4 mph - N/A   Mostly Cloudy
2:58 AM 28.4 °F 20.4 °F 10.0 °F 46% 30.31 in 10.0 mi ESE 8.1 mph - N/A   Clear
3:58 AM 28.2 °F 20.2 °F 10.9 °F 48% 30.30 in 10.0 mi East 8.1 mph - N/A   Mostly Cloudy
4:58 AM 29.1 °F 20.0 °F 10.6 °F 46% 30.29 in 10.0 mi ESE 10.4 mph - N/A   Overcast
5:58 AM 29.3 °F 20.8 °F 10.6 °F 46% 30.27 in 10.0 mi ESE 9.2 mph - N/A   Overcast
6:58 AM 29.5 °F 20.4 °F 10.8 °F 46% 30.30 in 10.0 mi ESE 10.4 mph - N/A   Overcast
7:58 AM 29.5 °F 21.8 °F 11.1 °F 46% 30.31 in 10.0 mi ESE 8.1 mph - N/A   Overcast
8:58 AM 30.2 °F 21.3 °F 11.7 °F 46% 30.30 in 10.0 mi SE 10.4 mph - N/A   Overcast
9:13 AM 32.0 °F 24.2 °F 12.2 °F 44% 30.25 in 10.0 mi SE 9.2 mph - N/A   Overcast
9:16 AM 32.0 °F 23.6 °F 12.2 °F 44% 30.25 in 10.0 mi SE 10.4 mph - N/A Snow Light Snow
9:34 AM 32.0 °F 23.0 °F 12.2 °F 44% 30.25 in 10.0 mi SSE 11.5 mph - N/A   Overcast
9:59 AM 31.5 °F 22.3 °F 13.6 °F 48% 30.30 in 10.0 mi SE 11.5 mph - 0.00 in   Overcast
10:24 AM 32.0 °F 24.8 °F 15.8 °F 51% 30.26 in 10.0 mi SSE 8.1 mph - N/A Snow Light Snow
10:38 AM 32.0 °F 24.2 °F 15.8 °F 51% 30.26 in 10.0 mi SSE 9.2 mph - N/A   Overcast
10:58 AM 32.0 °F 23.6 °F 17.2 °F 55% 30.30 in 10.0 mi South 10.4 mph - 0.00 in   Overcast
11:58 AM 33.4 °F 29.1 °F 19.2 °F 56% 30.30 in 10.0 mi Variable 4.6 mph - N/A   Overcast
12:08 PM 32.0 °F 25.6 °F 19.4 °F 60% 30.25 in 10.0 mi South 6.9 mph - N/A   Overcast
12:58 PM 36.3 °F 33.7 °F 20.1 °F 52% 30.28 in 10.0 mi Variable 3.5 mph - N/A   Mostly Cloudy
1:58 PM 40.5 °F 35.1 °F 18.3 °F 41% 30.26 in 10.0 mi NNW 8.1 mph - N/A   Clear
2:58 PM 43.7 °F 38.1 °F 16.9 °F 34% 30.23 in 10.0 mi NNE 10.4 mph - N/A   Scattered Clouds
3:58 PM 46.6 °F - 14.7 °F 28% 30.22 in 10.0 mi North 10.4 mph 20.7 mph N/A   Scattered Clouds
4:55 PM 44.6 °F 35.9 °F 14.0 °F 29% 30.17 in 10.0 mi NW 23.0 mph 27.6 mph N/A   Mostly Cloudy
4:59 PM 44.8 °F 37.1 °F 13.8 °F 29% 30.21 in 10.0 mi NW 18.4 mph 27.6 mph N/A   Mostly Cloudy
5:58 PM 44.2 °F 37.0 °F 15.4 °F 31% 30.23 in 10.0 mi NNW 16.1 mph 24.2 mph N/A   Mostly Cloudy
6:58 PM 39.9 °F 30.8 °F 16.3 °F 38% 30.25 in 10.0 mi NW 18.4 mph 23.0 mph N/A   Mostly Cloudy
7:58 PM 36.3 °F 27.1 °F 16.0 °F 44% 30.27 in 10.0 mi North 15.0 mph 19.6 mph N/A   Partly Cloudy
8:58 PM 33.4 °F 27.3 °F 16.2 °F 49% 30.28 in 10.0 mi NNW 6.9 mph - N/A   Clear
9:58 PM 26.6 °F 20.0 °F 14.9 °F 61% 30.29 in 10.0 mi WNW 5.8 mph - N/A   Clear
10:58 PM 25.9 °F 20.3 °F 15.1 °F 64% 30.29 in 10.0 mi WNW 4.6 mph - N/A   Clear
11:58 PM 24.6 °F 18.8 °F 15.3 °F 68% 30.28 in 10.0 mi West 4.6 mph - N/A   Clear